Change the Weather History Date:

Friday, April 27, 2012

  Actual Average Record
Temperature  
Mean Temperature 79 °F 65 °F  
Max Temperature 86 °F 77 °F 91 °F (1989)
Min Temperature 71 °F 53 °F 36 °F (1992)
Degree Days  
Heating Degree Days 0 3  
Month to date heating degree days 46 148  
Since 1 July heating degree days 2319 3207  
Cooling Degree Days 14 3  
Month to date cooling degree days 96 46  
Year to date cooling degree days 196 58  
Growing Degree Days 28 (Base 50)    
Moisture  
Dew Point 63 °F    
Average Humidity 61    
Maximum Humidity 84    
Minimum Humidity 37    
Precipitation  
Precipitation 0.00 in 0.16 in 1.96 in (1923)
Month to date precipitation 2.34 3.81  
Year to date precipitation 17.00 13.23  
Sea Level Pressure  
Sea Level Pressure 29.77 in    
Wind  
Wind Speed 8 mph (SE)    
Max Wind Speed 21 mph    
Max Gust Speed 29 mph    
Visibility 9 miles    
Events      
T = Trace of Precipitation, MM = Missing Value Source: NWS Daily Summary

Daily Weather History Graph

Daily Weather History Graph

Search for Another Location

Airport or City:

Trip Planner

Search our weather history database for the weather conditions in past years. The results will help you decide how hot, cold, wet, or windy it might be!

Date:

Astronomy

Apr. 27, 2012 Rise Set
Actual Time 6:29 AM CDT 8:00 PM CDT
Civil Twilight 6:02 AM CDT 8:27 PM CDT
Nautical Twilight 5:30 AM CDT 9:00 PM CDT
Astronomical Twilight 4:56 AM CDT 9:34 PM CDT
Moon 11:11 AM CDT (4/27) 12:44 AM CDT (4/27)
Length of Visible Light 14h 24m
Length of Day
13h 30m
Waxing Crescent, 33% of the Moon is Illuminated
Apr 27
Waxing Crescent
Apr 29
First Quarter
May 5
Full
May 12
Last Quarter
May 20
New

Hourly Weather History & Observations

Time (CDT) Temp. Heat Index Dew Point Humidity Pressure Visibility Wind Dir Wind Speed Gust Speed Precip Events Conditions
12:53 AM 72.0 °F - 66.0 °F 81% 29.85 in 10.0 mi ENE 4.6 mph - N/A   Scattered Clouds
1:53 AM 73.0 °F - 66.0 °F 79% 29.83 in 10.0 mi NE 5.8 mph - N/A   Clear
2:53 AM 72.0 °F - 66.0 °F 81% 29.81 in 6.0 mi ENE 4.6 mph - N/A   Haze
3:53 AM 72.0 °F - 66.0 °F 81% 29.81 in 5.0 mi ENE 4.6 mph - N/A   Haze
4:53 AM 72.0 °F - 64.9 °F 78% 29.81 in 7.0 mi East 3.5 mph - N/A   Overcast
5:53 AM 71.1 °F - 64.9 °F 81% 29.81 in 10.0 mi Calm Calm - N/A   Clear
6:53 AM 71.1 °F - 66.0 °F 84% 29.83 in 9.0 mi ENE 5.8 mph - N/A   Overcast
7:53 AM 72.0 °F - 66.0 °F 81% 29.84 in 9.0 mi East 8.1 mph - N/A   Partly Cloudy
8:53 AM 75.9 °F - 66.0 °F 71% 29.82 in 10.0 mi ESE 11.5 mph 18.4 mph N/A   Partly Cloudy
9:53 AM 75.9 °F - 64.0 °F 67% 29.81 in 10.0 mi SE 11.5 mph - N/A   Partly Cloudy
10:53 AM 75.9 °F - 64.0 °F 67% 29.82 in 10.0 mi ESE 8.1 mph - N/A   Clear
11:53 AM 80.1 °F 80.7 °F 59.0 °F 48% 29.78 in 10.0 mi SE 13.8 mph 25.3 mph N/A   Clear
12:53 PM 82.0 °F 82.0 °F 57.9 °F 44% 29.76 in 10.0 mi SE 12.7 mph 19.6 mph N/A   Clear
1:53 PM 82.9 °F 82.6 °F 57.9 °F 42% 29.73 in 10.0 mi SSE 10.4 mph 19.6 mph N/A   Clear
2:53 PM 86.0 °F 85.0 °F 57.9 °F 38% 29.70 in 10.0 mi South 15.0 mph 19.6 mph N/A   Clear
3:53 PM 84.9 °F 84.4 °F 59.0 °F 41% 29.69 in 10.0 mi SSW 15.0 mph 21.9 mph N/A   Clear
4:53 PM 84.9 °F 84.8 °F 60.1 °F 43% 29.70 in 10.0 mi South 15.0 mph - N/A   Clear
5:53 PM 84.9 °F 85.0 °F 61.0 °F 44% 29.70 in 10.0 mi South 12.7 mph 19.6 mph N/A   Partly Cloudy
6:53 PM 82.9 °F 83.3 °F 61.0 °F 47% 29.71 in 10.0 mi South 12.7 mph 21.9 mph N/A   Scattered Clouds
7:53 PM 80.1 °F 81.1 °F 61.0 °F 52% 29.72 in 10.0 mi SSE 5.8 mph - N/A   Overcast
7:55 PM 80.6 °F 81.5 °F 60.8 °F 51% 29.74 in 10.0 mi SSE 5.8 mph - N/A   Scattered Clouds
8:53 PM 78.1 °F - 62.1 °F 58% 29.74 in 10.0 mi SSE 4.6 mph - N/A   Scattered Clouds
9:53 PM 77.0 °F - 62.1 °F 60% 29.75 in 10.0 mi SSE 5.8 mph - N/A   Clear
10:53 PM 73.0 °F - 62.1 °F 68% 29.76 in 10.0 mi NE 4.6 mph - N/A   Clear
11:53 PM 73.0 °F - 62.1 °F 68% 29.76 in 10.0 mi Calm Calm - N/A   Clear